Wind_Speed
41 40 40 38 37 34 31 33 28 24 21 19 21 20 19 19 16 14 13 7 4 1 2 5 5 8 9 11 12 12 12 12 11 10 8 6 4 5 6 10 10 11 11 12 14 15 17 19 20
44 42 43 42 42 39 37 33 29 24 15 10 19 26 21 20 18 15 14 8 5 3 2 5 8 9 10 11 12 10 9 10 9 7 5 4 4 5 7 9 10 11 12 14 15 17 19 21 23
47 45 45 46 46 41 43 37 34 26 16 10 24 21 28 22 19 16 14 7 7 6 4 6 8 9 10 10 9 9 8 8 6 3 4 4 6 7 9 11 12 13 13 14 17 19 20 22 23
51 49 48 48 45 42 38 37 38 31 20 16 19 19 28 24 18 16 12 10 8 8 6 6 8 8 7 7 6 5 5 4 3 1 1 4 7 8 8 9 11 13 14 16 17 19 21 22 24
53 53 52 48 46 44 36 42 38 27 26 22 17 27 30 30 17 17 13 13 11 9 9 9 10 7 4 4 4 4 3 2 2 3 4 6 7 8 10 10 11 13 15 17 19 21 22 24 25
59 58 56 49 46 44 39 41 42 37 28 25 24 23 23 27 21 17 16 11 13 11 10 14 13 10 6 5 5 6 6 5 4 6 8 8 8 10 12 13 13 14 16 18 21 23 24 25 27
63 62 58 50 47 46 46 44 41 41 39 30 23 22 24 22 25 20 15 15 15 15 13 13 13 13 11 9 9 7 5 4 5 7 10 12 11 12 14 15 15 16 17 20 23 24 26 27 28
63 65 61 51 49 47 50 52 45 40 42 43 33 26 22 24 20 24 19 15 19 19 18 16 15 14 13 13 11 10 10 10 10 11 12 14 15 16 16 18 17 17 19 22 24 26 28 29 29
63 65 62 52 50 48 51 53 52 44 42 43 40 33 30 25 25 23 24 20 21 22 21 20 18 16 13 13 13 13 14 14 14 13 15 16 18 19 19 19 21 21 22 25 26 28 30 29 30
63 64 58 57 52 49 49 53 55 52 44 42 45 38 35 36 24 25 24 27 26 24 22 20 18 18 21 22 21 21 21 20 21 20 22 22 20 21 24 24 23 25 25 26 27 28 30 31 33
62 63 59 61 57 50 50 52 52 57 55 42 42 35 33 35 28 25 19 21 29 28 27 26 23 22 24 25 24 25 27 30 34 33 31 30 27 23 26 27 25 27 27 27 27 30 31 32 33
63 59 57 60 65 55 52 50 51 55 60 56 44 40 36 35 35 31 29 26 26 27 30 30 28 26 25 26 22 23 27 31 36 38 43 36 33 32 29 28 26 28 29 31 31 33 34 34 32
64 59 56 57 61 65 56 50 50 53 59 61 54 50 39 38 34 33 30 25 24 26 26 30 28 26 29 27 18 24 26 29 37 38 39 39 36 34 31 25 26 29 31 33 34 36 36 35 35
64 59 55 53 62 64 62 54 48 53 51 56 55 52 53 44 35 36 30 30 30 30 26 15 15 14 20 22 24 26 26 34 37 42 41 41 37 29 29 25 28 34 36 39 38 38 37 36 35
63 59 55 52 55 61 63 63 55 48 46 48 52 51 48 51 50 42 35 32 28 29 24 35 24 20 24 32 28 27 29 32 36 38 47 35 41 42 38 32 33 37 38 40 42 41 38 37 37
60 59 55 51 52 56 63 61 63 52 49 44 47 48 50 47 49 48 43 43 45 38 32 32 34 30 24 22 23 29 30 29 23 27 28 36 40 53 42 42 35 37 42 44 45 47 45 40 42
62 58 56 51 52 54 58 61 62 63 58 51 52 47 48 48 47 46 45 36 40 41 34 30 27 16 18 27 34 34 34 32 31 26 24 38 42 42 43 41 45 45 47 50 50 48 49 48 45
58 56 55 51 54 54 53 57 65 64 63 64 61 53 54 54 50 48 46 48 44 43 40 37 30 28 36 45 43 42 38 37 33 33 33 34 36 37 37 40 50 59 55 51 52 49 51 47 43
55 53 54 54 54 54 53 54 59 65 65 62 64 66 56 56 51 50 49 47 48 50 49 48 47 52 46 47 42 44 37 39 37 37 39 37 35 37 37 43 48 54 58 54 51 52 50 45 43
54 55 52 49 51 53 55 56 53 58 61 64 62 60 60 61 58 59 57 53 54 53 53 51 51 49 46 43 44 40 36 31 32 37 41 40 40 42 44 44 46 49 50 50 50 49 47 47 46
49 50 51 49 50 55 55 57 56 54 56 59 61 62 61 61 59 56 59 62 59 58 56 55 55 54 51 47 42 41 41 40 40 38 37 38 37 38 41 43 43 46 49 49 46 48 46 46 43
45 45 45 46 50 52 54 55 55 53 54 53 54 57 60 59 59 61 62 61 58 59 59 57 58 57 55 52 49 47 46 44 41 40 40 41 44 43 41 41 43 41 43 44 47 45 44 46 46
39 40 42 44 49 52 54 56 54 54 53 52 53 53 54 56 57 57 55 55 55 55 55 55 55 56 54 51 50 47 47 48 48 43 49 48 49 51 55 50 50 48 46 46 48 46 47 49 50
35 39 42 44 47 51 52 56 56 54 51 52 51 51 53 54 55 56 55 53 53 52 51 51 51 50 50 50 50 50 48 47 50 52 52 53 50 51 51 53 51 48 50 50 49 47 46 49 51
37 40 42 45 48 50 51 55 54 54 54 54 53 53 52 54 58 56 54 50 49 46 44 44 42 44 45 45 47 49 49 45 45 47 48 50 44 48 48 45 46 46 46 47 50 51 53 54 56
36 40 45 48 50 52 49 55 55 55 55 50 51 48 53 55 57 57 50 44 40 39 33 35 35 39 41 43 45 47 49 51 47 41 41 44 46 44 45 47 49 51 53 54 56 56 55 57 57
27 32 35 41 44 49 50 52 54 54 51 50 50 46 44 44 45 39 41 43 35 35 37 35 39 41 42 44 46 49 50 48 45 42 43 45 47 49 51 52 53 54 55 56 56 57 57 59 59
23 24 31 40 36 33 35 36 37 36 36 37 33 34 37 42 38 40 40 35 35 39 40 36 33 31 35 38 43 45 47 46 45 45 47 49 51 52 51 52 51 52 53 54 55 56 57 58 60
22 23 22 21 21 17 15 21 20 23 27 29 33 34 36 37 39 42 43 37 35 31 26 26 25 28 29 33 38 41 41 42 42 43 45 46 48 50 50 50 50 52 54 56 59 62 65 67 70
13 13 18 20 21 14 16 17 16 21 30 29 28 31 33 34 35 33 29 25 25 22 23 23 22 22 28 31 34 37 37 38 40 42 43 45 46 47 49 52 55 58 61 65 67 70 73 75 77
Wind_Direction
219 208 207 199 198 199 213 220 214 229 232 207 195 178 165 162 153 147 134 110 116 93 231 190 153 144 138 129 127 123 116 115 113 106 97 85 59 41 22 10 15 22 23 23 14 10 4 358 358
218 212 209 203 199 197 213 219 219 228 221 215 213 184 173 178 166 157 128 134 122 128 195 186 151 146 136 130 125 112 107 108 110 115 107 87 59 23 8 19 23 23 21 13 9 6 0 355 353
214 216 210 209 198 200 210 216 218 222 186 192 194 217 180 172 170 157 137 141 160 167 189 183 164 141 133 131 125 105 92 97 98 92 75 34 23 19 20 20 18 16 12 8 3 1 358 355 349
209 213 214 211 201 198 218 220 223 218 198 171 174 157 168 186 165 173 150 149 167 189 195 198 173 139 143 140 133 118 98 112 113 42 8 9 14 9 6 9 7 6 2 357 356 354 351 351 346
210 209 214 211 205 200 212 227 218 219 217 215 206 185 196 200 179 177 174 169 180 189 194 195 192 155 147 156 165 178 143 133 192 269 306 327 342 344 346 349 354 355 351 350 349 347 344 344 340
220 209 210 210 207 206 209 219 226 222 222 219 214 216 202 191 179 183 182 178 190 202 202 202 210 204 198 202 200 207 224 236 249 269 288 305 322 330 330 331 337 340 340 340 343 342 339 340 340
219 215 209 206 206 208 212 218 220 228 226 226 223 224 221 205 192 180 184 187 200 206 210 220 215 214 217 220 220 216 214 235 267 278 289 297 305 314 320 318 320 325 328 331 336 336 337 339 338
217 217 211 203 204 207 216 222 218 219 230 231 227 215 218 217 222 189 182 196 204 211 215 220 218 214 209 218 218 225 229 247 260 279 291 294 297 300 309 313 313 314 320 325 329 332 334 336 334
216 218 214 203 203 205 216 221 221 221 227 233 231 226 225 226 219 215 196 197 212 226 231 233 231 236 241 247 246 247 250 253 262 274 281 288 296 303 306 310 310 312 316 317 322 327 330 330 327
218 215 213 207 205 205 215 219 222 223 224 228 234 229 232 234 228 239 211 205 212 223 234 238 243 255 263 266 270 274 274 277 285 291 288 290 296 305 305 304 306 309 312 314 316 321 325 326 325
216 215 210 207 204 207 216 219 220 222 226 224 227 224 222 227 220 223 227 227 227 228 230 234 245 256 261 268 276 288 300 304 303 297 296 299 301 301 299 299 303 305 307 310 312 316 319 324 322
215 215 213 206 209 205 216 220 221 221 224 229 226 230 220 222 225 227 244 260 267 255 246 247 247 245 258 262 270 280 294 297 300 302 297 298 305 300 299 302 306 306 308 310 312 314 317 320 319
213 212 212 208 208 205 209 217 222 223 225 227 233 230 226 224 226 226 239 250 266 258 255 253 260 253 265 256 276 290 291 293 292 289 287 294 298 294 296 302 304 305 309 311 311 313 315 317 316
213 211 211 208 208 208 215 215 220 224 227 229 235 238 240 234 231 229 226 240 246 250 248 215 249 281 294 296 293 299 302 290 287 283 277 283 287 292 289 292 302 308 311 312 312 310 312 313 313
213 213 209 207 210 213 213 222 220 225 230 233 233 237 239 242 239 236 235 240 252 252 251 233 282 272 275 287 286 291 298 300 305 291 277 274 280 289 290 281 293 301 305 308 307 306 307 307 307
213 214 210 207 210 211 214 222 226 224 230 235 237 240 242 242 244 245 247 249 251 252 259 268 271 274 272 266 281 293 293 298 298 304 285 272 269 281 289 280 285 297 305 304 303 302 305 305 305
213 211 209 209 212 216 212 214 223 227 228 234 238 240 245 247 249 252 246 242 242 244 254 268 264 238 254 279 287 292 287 280 284 272 271 273 274 281 280 284 279 288 296 298 297 297 297 300 300
213 209 210 210 213 218 215 212 219 225 229 234 236 240 245 250 251 253 255 252 253 257 261 270 260 246 273 284 286 289 283 276 268 272 277 275 282 278 277 275 278 276 283 290 291 295 296 295 295
212 212 211 209 213 216 219 216 218 222 224 229 237 243 248 250 252 255 257 259 260 263 268 269 271 268 275 281 283 285 279 272 267 267 270 273 278 282 281 278 281 279 281 288 288 294 292 289 289
210 211 209 212 215 215 220 221 215 226 226 228 231 239 244 248 252 256 259 261 264 265 268 270 270 271 274 282 284 280 273 272 275 275 273 277 279 280 279 277 281 285 286 288 289 288 287 286 287
212 214 210 209 213 218 219 223 222 222 230 231 233 235 242 247 251 252 255 258 261 265 267 270 271 273 276 279 275 271 273 273 273 270 272 276 278 279 279 280 282 283 284 286 283 284 286 284 285
211 214 214 212 214 217 222 226 227 225 228 233 236 237 239 244 247 251 255 258 261 264 267 269 272 274 274 274 272 269 271 273 270 266 278 281 286 285 283 279 277 283 283 285 284 283 279 279 282
205 210 212 210 214 216 222 227 227 228 227 231 235 240 243 245 246 249 250 254 258 261 264 268 271 274 275 273 271 269 266 269 266 265 270 272 276 281 281 277 279 276 275 276 278 276 276 279 281
201 206 208 209 214 218 223 227 227 230 230 232 232 232 240 248 252 254 255 257 259 262 264 265 267 270 269 270 271 272 272 269 266 267 271 273 274 274 274 276 277 274 272 271 276 278 278 279 282
204 211 212 212 216 220 220 226 229 230 232 234 237 237 234 238 245 250 254 257 260 265 265 265 263 261 260 262 264 266 270 266 267 267 266 267 266 272 270 273 275 277 277 277 277 278 279 279 281
204 212 215 216 216 220 221 227 229 232 235 236 240 246 246 241 242 249 254 255 255 258 260 256 260 263 263 268 269 271 272 275 273 265 261 266 268 270 275 278 279 281 282 282 282 282 281 281 280
214 217 214 214 218 220 225 228 232 233 234 235 237 239 247 252 254 252 251 258 256 260 254 257 261 261 265 266 267 268 269 268 274 280 283 283 282 280 280 281 282 283 283 284 285 286 287 287 286
211 215 212 217 215 217 228 232 241 240 236 234 235 237 238 244 243 248 250 247 250 250 250 251 251 257 265 269 272 274 276 281 283 284 285 283 283 286 287 288 289 289 289 290 290 289 288 286 284
196 201 201 210 217 214 214 231 226 223 210 217 215 222 226 231 228 235 238 237 246 240 244 243 253 263 274 280 285 286 288 287 286 285 283 283 285 286 288 290 292 293 293 293 292 291 290 289 289
187 202 202 214 208 223 217 207 217 204 199 195 201 218 224 228 226 228 226 224 232 237 245 252 260 271 276 280 284 287 291 292 289 289 291 293 296 297 297 297 297 296 294 293 292 291 291 291 291
Height
5864 5870 5873 5878 5885 5886 5886 5887 5890 5891 5894 5897 5901 5904 5907 5909 5912 5915 5915 5917 5919 5921 5922 5923 5922 5922 5922 5922 5923 5924 5925 5925 5926 5927 5928 5929 5930 5930 5930 5929 5928 5927 5925 5924 5923 5922 5921 5919 5918
5859 5864 5868 5872 5877 5882 5882 5885 5889 5890 5893 5896 5899 5903 5907 5909 5910 5912 5912 5915 5917 5918 5920 5922 5921 5921 5921 5922 5924 5925 5925 5926 5927 5928 5929 5930 5930 5929 5929 5929 5928 5927 5925 5925 5924 5922 5921 5920 5918
5851 5858 5863 5865 5870 5878 5878 5879 5884 5888 5892 5893 5896 5899 5902 5907 5908 5909 5910 5912 5915 5917 5919 5920 5921 5921 5921 5922 5924 5925 5926 5926 5928 5930 5930 5930 5930 5930 5929 5929 5928 5928 5926 5924 5924 5922 5920 5918 5917
5842 5851 5856 5860 5868 5875 5876 5878 5881 5886 5891 5891 5892 5898 5902 5905 5906 5908 5908 5910 5913 5916 5918 5920 5921 5921 5923 5923 5924 5925 5926 5927 5928 5929 5929 5929 5929 5928 5928 5927 5927 5926 5925 5924 5922 5921 5919 5917 5914
5833 5841 5847 5856 5864 5871 5872 5871 5878 5882 5886 5889 5891 5894 5896 5900 5903 5905 5907 5907 5911 5915 5917 5919 5920 5921 5922 5923 5924 5925 5925 5926 5926 5928 5928 5928 5928 5927 5927 5926 5925 5924 5924 5922 5920 5919 5916 5915 5913
5824 5832 5839 5850 5860 5867 5867 5866 5871 5878 5882 5883 5890 5894 5895 5898 5900 5903 5905 5907 5910 5913 5916 5918 5919 5921 5921 5922 5922 5923 5924 5925 5926 5927 5927 5927 5927 5926 5926 5926 5924 5923 5922 5920 5919 5917 5915 5912 5911
5816 5826 5833 5845 5856 5861 5864 5860 5868 5871 5878 5881 5885 5891 5893 5895 5898 5901 5903 5905 5908 5912 5915 5917 5917 5918 5920 5921 5922 5923 5923 5924 5925 5926 5926 5927 5926 5924 5924 5924 5923 5922 5921 5920 5918 5916 5914 5911 5909
5808 5817 5828 5839 5849 5856 5856 5857 5864 5868 5872 5877 5882 5887 5892 5894 5896 5897 5900 5904 5907 5910 5913 5915 5916 5916 5918 5920 5921 5922 5922 5922 5923 5924 5924 5924 5923 5922 5922 5922 5921 5920 5919 5917 5916 5914 5912 5909 5906
5799 5806 5821 5834 5842 5849 5848 5853 5858 5863 5867 5871 5877 5883 5887 5890 5894 5896 5899 5902 5906 5909 5911 5914 5915 5917 5920 5922 5922 5922 5922 5921 5921 5921 5921 5921 5921 5921 5921 5919 5919 5918 5916 5915 5913 5911 5909 5906 5903
5789 5800 5816 5827 5835 5840 5841 5845 5853 5859 5862 5866 5869 5879 5882 5886 5890 5893 5895 5898 5901 5904 5908 5910 5913 5917 5919 5921 5922 5923 5923 5923 5923 5923 5921 5919 5917 5918 5919 5917 5916 5915 5914 5912 5910 5908 5906 5903 5901
5782 5794 5809 5817 5826 5833 5834 5837 5846 5852 5858 5861 5865 5873 5878 5882 5887 5890 5892 5895 5898 5901 5904 5906 5910 5913 5916 5918 5921 5923 5923 5923 5923 5923 5921 5920 5919 5915 5915 5914 5911 5911 5909 5907 5905 5902 5900 5897 5896
5773 5786 5799 5806 5815 5824 5828 5831 5838 5845 5850 5856 5861 5866 5874 5878 5882 5887 5889 5894 5898 5901 5902 5904 5907 5909 5912 5914 5917 5918 5918 5918 5918 5918 5918 5917 5916 5913 5911 5908 5906 5905 5906 5904 5902 5898 5895 5893 5890
5765 5778 5788 5798 5807 5816 5820 5824 5831 5836 5843 5850 5856 5862 5868 5873 5877 5882 5886 5892 5895 5897 5899 5902 5905 5907 5908 5908 5911 5913 5913 5913 5912 5911 5911 5912 5910 5908 5906 5903 5901 5899 5900 5899 5897 5894 5891 5888 5885
5757 5769 5781 5791 5799 5807 5814 5818 5824 5830 5835 5843 5849 5855 5861 5868 5873 5878 5882 5887 5890 5893 5898 5901 5902 5902 5904 5905 5906 5906 5906 5907 5904 5903 5902 5904 5904 5900 5900 5898 5895 5893 5893 5891 5888 5886 5884 5881 5879
5749 5762 5773 5783 5792 5801 5808 5812 5821 5826 5829 5834 5842 5847 5853 5859 5866 5873 5879 5882 5886 5888 5892 5894 5895 5896 5899 5900 5902 5901 5901 5900 5898 5893 5895 5895 5897 5893 5893 5890 5887 5885 5884 5884 5883 5878 5876 5874 5870
5740 5752 5766 5777 5784 5792 5802 5812 5816 5821 5824 5828 5833 5838 5843 5851 5857 5865 5872 5878 5882 5883 5887 5889 5891 5893 5896 5897 5897 5896 5895 5894 5890 5887 5885 5885 5889 5886 5884 5883 5880 5878 5877 5876 5873 5870 5868 5866 5862
5731 5749 5762 5771 5777 5784 5796 5804 5808 5813 5819 5823 5826 5831 5837 5843 5849 5855 5865 5872 5875 5878 5882 5885 5886 5889 5891 5891 5891 5890 5890 5888 5885 5883 5879 5880 5881 5880 5878 5876 5875 5870 5871 5868 5866 5864 5862 5859 5856
5731 5745 5756 5767 5772 5776 5788 5795 5798 5805 5812 5816 5820 5823 5831 5838 5843 5848 5854 5862 5867 5871 5874 5878 5879 5882 5885 5885 5884 5883 5882 5880 5880 5877 5874 5873 5872 5872 5871 5869 5868 5863 5862 5860 5857 5857 5853 5850 5847
5726 5737 5748 5756 5762 5768 5779 5785 5791 5796 5802 5808 5812 5817 5824 5831 5836 5841 5848 5853 5858 5862 5865 5868 5871 5872 5877 5876 5876 5875 5875 5873 5871 5869 5867 5865 5864 5864 5861 5860 5857 5854 5853 5852 5849 5847 5844 5840 5837
5718 5727 5740 5750 5755 5762 5768 5776 5786 5787 5796 5803 5808 5810 5817 5822 5830 5834 5838 5844 5848 5853 5856 5859 5861 5862 5865 5867 5867 5868 5866 5865 5863 5861 5860 5857 5855 5854 5853 5850 5849 5845 5841 5842 5839 5836 5833 5829 5826
5715 5723 5733 5743 5748 5753 5760 5765 5776 5786 5789 5795 5803 5808 5809 5812 5819 5827 5831 5834 5838 5841 5844 5847 5849 5851 5855 5858 5858 5858 5858 5857 5856 5854 5852 5849 5847 5846 5844 5841 5838 5835 5834 5832 5829 5825 5822 5819 5818
5711 5719 5727 5736 5741 5748 5752 5761 5769 5779 5786 5790 5797 5801 5804 5806 5811 5816 5819 5825 5829 5832 5833 5835 5837 5840 5843 5846 5847 5847 5847 5846 5844 5843 5841 5838 5835 5833 5832 5831 5829 5826 5823 5823 5819 5815 5812 5808 5808
5706 5712 5720 5727 5733 5739 5745 5752 5762 5768 5779 5786 5790 5793 5795 5797 5800 5805 5812 5817 5820 5822 5825 5827 5828 5829 5830 5833 5834 5835 5837 5835 5833 5831 5830 5829 5826 5824 5820 5817 5816 5813 5811 5809 5807 5803 5801 5798 5797
5697 5705 5712 5719 5725 5734 5742 5745 5752 5762 5772 5774 5781 5787 5790 5789 5792 5796 5801 5809 5812 5814 5817 5817 5818 5818 5818 5817 5818 5820 5822 5823 5821 5819 5817 5815 5812 5810 5808 5805 5802 5801 5798 5796 5794 5792 5790 5787 5786
5694 5700 5707 5714 5721 5730 5730 5735 5748 5754 5758 5766 5771 5776 5781 5783 5784 5789 5793 5798 5801 5804 5807 5807 5808 5806 5806 5806 5806 5806 5805 5808 5808 5807 5805 5803 5801 5800 5797 5794 5791 5788 5786 5784 5782 5780 5778 5775 5772
5690 5694 5700 5706 5713 5716 5722 5729 5739 5745 5750 5759 5763 5765 5770 5777 5781 5784 5788 5789 5791 5793 5796 5797 5796 5796 5796 5795 5794 5793 5793 5793 5794 5795 5794 5793 5791 5789 5785 5781 5779 5776 5774 5772 5769 5766 5763 5761 5758
5689 5693 5699 5702 5707 5711 5718 5725 5729 5736 5743 5748 5752 5758 5764 5769 5773 5778 5780 5781 5783 5785 5787 5787 5786 5786 5787 5786 5785 5785 5785 5784 5783 5782 5782 5781 5779 5776 5774 5772 5770 5767 5765 5762 5759 5755 5751 5747 5745
5686 5692 5694 5696 5703 5710 5715 5720 5724 5730 5736 5740 5746 5751 5755 5761 5767 5770 5773 5774 5775 5778 5777 5779 5778 5779 5779 5779 5777 5777 5776 5776 5776 5774 5772 5768 5766 5764 5762 5760 5757 5755 5752 5748 5745 5741 5736 5733 5729
5684 5687 5693 5700 5706 5711 5716 5720 5723 5727 5731 5736 5742 5746 5749 5754 5759 5762 5764 5767 5768 5769 5770 5771 5772 5773 5773 5771 5767 5767 5768 5768 5766 5763 5761 5759 5757 5755 5752 5749 5745 5740 5736 5732 5728 5723 5719 5714 5710
5686 5690 5694 5698 5705 5710 5713 5718 5720 5724 5729 5732 5736 5741 5744 5748 5753 5755 5757 5758 5760 5762 5763 5764 5766 5766 5765 5763 5763 5761 5759 5758 5756 5753 5750 5747 5744 5741 5736 5732 5728 5723 5718 5714 5710 5705 5700 5695 5689